This is the latest recevied weather packets stored in our database for station/object N3WMC. If no packets are shown the sender has not sent any weather packets the latest 10 day(s).
| Time | Temp. | Humidity | Pressure | Rain* | Wind** | Luminosity | Snow |
|---|---|---|---|---|---|---|---|
| 1788005234 | 13.33° C | 99% | 1025.6 hPa | 0 mm | - | 136 W/m² | - |
| 1788004933 | 12.78° C | 99% | 1025.5 hPa | 0 mm | - | 125 W/m² | - |
| 1788004632 | 12.22° C | 99% | 1025.6 hPa | 0 mm | - | 116 W/m² | - |
| 1788004326 | 12.78° C | 99% | 1025.4 hPa | 0 mm | - | 104 W/m² | - |
| 1788004021 | 11.11° C | 99% | 1025.7 hPa | 0 mm | - | 92 W/m² | - |
| 1788003719 | 11.11° C | 99% | 1025.6 hPa | 0 mm | - | 30 W/m² | - |
| 1788003414 | 10.56° C | 99% | 1025.5 hPa | 0 mm | - | 28 W/m² | - |
| 1788003108 | 10.56° C | 99% | 1025.7 hPa | 0 mm | - | 25 W/m² | - |
| 1788002808 | 10.56° C | 99% | 1025.5 hPa | 0 mm | - | 22 W/m² | - |
| 1788002504 | 10.56° C | 99% | 1025.5 hPa | 0 mm | - | 19 W/m² | - |
| 1788002199 | 10.56° C | 99% | 1025.6 hPa | 0 mm | - | 17 W/m² | - |
| 1788001893 | 10.56° C | 99% | 1025.2 hPa | 0 mm | - | 15 W/m² | - |
| 1788001588 | 10.56° C | 99% | 1025.6 hPa | 0 mm | - | 14 W/m² | - |
| 1788001283 | 10° C | 99% | 1025.3 hPa | 0 mm | - | 11 W/m² | - |
| 1788000983 | 10.56° C | 99% | 1025.2 hPa | 0 mm | - | 9 W/m² | - |
| 1788000678 | 10.56° C | 99% | 1025.3 hPa | 0 mm | - | 6 W/m² | - |
| 1788000373 | 10.56° C | 99% | 1025.4 hPa | 0 mm | - | 4 W/m² | - |
| 1788000068 | 10° C | 99% | 1025 hPa | 0 mm | - | 2 W/m² | - |
| 1787999764 | 10° C | 99% | 1025.4 hPa | 0 mm | - | 1 W/m² | - |
| 1787999456 | 10° C | 99% | 1025.3 hPa | 0 mm | - | 1 W/m² | - |
| 1787999155 | 10° C | 99% | 1025.3 hPa | 0 mm | - | 0 W/m² | - |
| 1787998849 | 10° C | 99% | 1025.1 hPa | 0 mm | - | 0 W/m² | - |
| 1787998549 | 10° C | 99% | 1025.2 hPa | 0 mm | - | 0 W/m² | - |
| 1787998243 | 10° C | 99% | 1024.9 hPa | 0 mm | - | 0 W/m² | - |
| 1787997938 | 10° C | 99% | 1025 hPa | 0 mm | - | 0 W/m² | - |
* Rain latest hour (hover to see other rain measurements)
** Current wind speed in m/s (hover to see current wind gust speed)